Lapse_Rate
6.6 6.5 7.1 7.0 6.5 6.3 6.5 6.4 6.4 6.5 6.4 6.0 6.2 6.4 7.2 7.2 6.8 7.1 7.0 6.8 6.9 6.9 6.9 7.0 6.9 6.7 6.4 6.4 6.3 6.0 6.1 6.0 5.9 6.0 6.0 5.9 5.9 5.8 5.8 5.8 5.8 5.9 5.9 5.9
6.4 6.6 7.0 6.7 6.6 6.5 6.5 6.4 6.6 6.6 6.4 6.0 6.1 6.2 7.0 7.5 7.3 7.3 7.4 7.2 7.2 7.1 7.0 7.2 7.2 7.1 6.9 6.4 6.1 6.1 6.1 6.1 6.1 6.2 6.1 6.0 5.9 5.9 5.9 5.9 6.0 6.0 6.0 5.9
6.3 6.7 6.8 6.8 6.8 6.7 6.6 6.6 6.5 6.4 6.3 6.1 5.8 5.8 6.6 7.5 7.5 7.6 7.4 7.5 7.3 7.1 7.2 7.2 7.1 7.0 6.9 6.5 6.3 6.2 6.2 6.2 6.2 6.2 6.2 6.1 6.0 6.0 6.0 5.9 5.9 5.9 5.8 5.8
6.2 6.8 6.8 6.8 6.9 6.9 6.2 7.1 6.6 6.5 6.0 6.0 5.4 5.9 6.0 6.7 7.3 7.6 7.4 7.6 7.5 7.2 7.2 7.2 6.9 6.8 6.8 6.5 6.1 6.3 6.3 6.2 6.2 6.2 6.1 6.1 6.0 6.0 6.0 6.0 5.9 5.8 5.8 5.8
6.5 6.8 6.8 6.7 7.0 6.9 6.3 6.6 6.5 6.3 5.9 5.2 5.2 5.0 6.1 6.2 6.6 7.2 7.4 7.5 7.5 7.3 7.4 7.2 6.8 6.7 6.3 6.2 6.3 6.3 6.5 6.4 6.3 6.1 6.0 6.0 6.0 6.1 6.1 6.0 5.9 5.9 5.9 5.9
6.7 6.7 6.6 6.8 6.8 6.6 6.5 6.2 6.1 5.9 5.5 5.1 5.9 5.5 6.2 6.5 6.6 6.9 7.1 7.1 7.3 7.6 7.2 7.0 6.7 6.8 6.7 6.4 6.5 6.7 6.9 6.6 6.5 6.4 6.3 6.2 6.2 6.3 6.2 6.2 6.0 5.9 6.1 6.0
6.7 6.7 6.7 6.8 6.7 6.3 6.2 5.8 6.5 6.2 5.0 6.1 5.5 4.5 5.7 6.4 6.5 6.7 6.8 6.9 7.1 6.9 6.8 6.8 6.7 6.7 6.8 6.7 6.8 6.9 7.0 6.8 6.6 6.4 6.5 6.5 6.5 6.4 6.5 6.4 6.3 6.0 5.9 6.0
6.0 6.0 6.7 6.7 6.9 6.6 6.5 5.8 6.6 6.9 7.2 7.7 4.8 4.9 5.9 6.1 6.5 6.7 6.9 7.0 6.8 6.8 6.7 6.7 6.8 6.8 6.9 6.9 7.0 7.0 6.8 6.7 6.6 6.7 6.7 6.6 6.6 6.6 6.5 6.3 6.2 5.9 5.8 5.8
6.4 6.1 6.7 6.5 6.5 6.7 5.6 5.4 6.4 6.2 6.3 6.0 6.4 6.3 6.2 6.2 6.4 6.5 6.7 6.8 7.0 7.0 6.9 7.0 7.1 6.9 6.8 6.9 6.9 6.9 6.8 6.9 7.0 7.0 6.9 6.7 6.7 6.6 6.4 6.3 6.1 6.0 5.8 5.8
6.4 6.1 6.1 6.2 6.1 5.8 6.2 6.1 5.8 5.7 6.6 7.0 6.8 6.9 6.2 6.3 6.5 6.6 6.9 7.0 7.2 7.1 6.9 6.9 7.1 7.1 7.1 6.9 6.8 6.8 6.7 6.7 6.8 6.7 6.7 6.6 6.5 6.4 6.3 6.1 6.1 6.1 6.0 5.8
6.2 6.1 5.8 5.5 5.3 5.8 6.0 5.4 5.7 6.6 6.5 7.3 7.4 7.0 6.8 6.5 6.5 6.8 6.9 7.1 7.0 7.0 6.9 6.7 6.8 7.0 7.1 7.1 6.8 6.7 6.6 6.6 6.5 6.4 6.4 6.4 6.4 6.3 6.1 6.2 6.2 6.2 6.0 5.7
6.2 6.2 5.6 5.7 5.5 5.6 5.6 5.8 6.2 6.4 6.7 6.8 7.0 6.4 6.8 6.6 6.5 6.8 6.9 7.0 6.8 6.7 6.7 6.6 6.6 6.7 6.7 6.8 6.9 7.0 6.8 6.6 6.5 6.4 6.4 6.3 6.3 6.1 6.0 6.0 6.1 5.8 5.4 5.3
5.9 5.8 5.7 5.6 5.6 5.5 5.9 5.9 6.1 6.4 6.5 6.1 6.9 6.1 6.7 6.5 6.5 6.9 7.2 7.2 7.0 6.8 6.5 6.3 6.2 6.2 6.3 6.4 6.5 6.2 6.0 6.0 6.2 6.0 5.9 5.9 5.9 6.0 6.0 5.8 5.6 5.5 5.3 5.2
5.4 5.1 5.4 6.1 6.2 6.6 6.2 6.4 6.3 6.3 5.9 6.1 6.3 6.6 6.2 6.7 6.9 6.9 6.8 6.7 6.4 6.1 6.0 6.1 5.9 6.0 5.7 5.8 6.0 6.0 6.2 6.0 6.1 6.1 5.9 5.6 5.5 5.6 5.4 5.3 5.0 5.1 5.2 5.0
5.3 5.3 5.7 5.7 5.7 5.7 5.6 5.8 6.0 5.7 6.0 5.9 5.8 6.0 6.1 6.7 6.5 6.3 6.0 6.2 6.3 6.4 6.4 6.3 6.1 5.9 5.9 5.8 5.7 5.7 5.8 6.0 6.1 5.8 5.4 5.0 4.9 4.8 4.9 4.8 4.8 5.1 5.2 5.1
5.4 4.8 5.2 5.7 5.9 6.4 6.1 6.1 6.2 6.3 6.4 6.2 6.3 6.2 6.1 5.7 6.0 6.3 6.2 6.1 6.4 6.4 6.3 6.3 6.2 6.1 6.0 5.7 5.4 5.5 5.8 5.7 5.3 5.1 5.0 4.9 4.9 4.6 4.6 5.0 5.0 5.1 5.1 5.0
4.8 4.8 5.3 5.8 6.0 6.1 6.4 5.1 5.6 5.8 5.4 4.6 4.7 3.6 4.5 5.3 5.9 5.8 6.2 6.2 6.2 6.2 6.3 6.0 5.9 5.8 5.6 5.0 4.7 4.5 4.6 4.8 4.7 4.6 4.5 4.6 4.9 5.0 5.0 4.9 4.8 4.9 5.0 5.1
4.2 5.0 5.5 5.9 6.3 7.0 4.8 4.5 4.3 4.5 3.3 3.3 3.5 3.7 3.9 4.2 4.2 4.2 4.8 4.6 4.5 4.4 4.0 3.7 3.7 3.4 3.4 3.6 3.7 3.9 3.9 4.3 4.4 4.5 4.5 4.4 4.8 4.9 4.8 4.9 4.9 5.0 5.0 5.0
5.2 5.6 5.6 5.9 5.6 5.8 5.1 4.6 4.0 3.6 2.9 3.1 3.2 2.9 2.7 2.3 2.7 3.2 3.6 2.9 3.4 3.3 3.5 3.3 3.2 3.4 3.7 3.4 3.6 3.5 3.9 4.2 4.3 4.3 4.3 4.4 4.5 4.8 4.9 5.1 5.3 5.4 5.5 5.4
5.4 5.0 5.2 5.1 6.3 6.2 4.2 4.3 4.1 3.9 2.3 3.0 2.8 2.8 3.0 3.1 3.0 3.0 3.5 3.3 3.2 3.0 2.8 3.0 3.2 3.3 3.4 3.4 3.6 3.9 4.0 4.2 4.4 4.5 4.7 4.8 4.9 5.0 5.3 5.6 5.4 5.3 5.3 5.1
5.1 5.5 5.2 5.6 6.0 4.9 4.6 5.0 4.3 4.3 3.7 3.6 2.8 3.1 3.2 3.5 3.4 3.3 3.4 3.4 3.9 3.9 4.0 4.0 3.9 3.9 4.1 4.0 4.2 4.3 4.4 4.8 4.6 4.3 4.5 4.8 5.1 5.1 5.1 5.2 5.2 5.2 5.1 5.1
4.9 4.7 4.6 4.8 4.9 4.9 5.4 4.9 4.6 3.5 3.3 3.5 3.3 3.5 3.8 3.5 3.4 3.5 3.5 3.5 3.7 4.1 4.3 4.2 4.1 4.1 4.3 4.4 4.4 4.3 4.0 4.3 4.7 4.9 4.9 4.9 4.9 4.9 5.1 5.2 5.2 5.3 5.5 5.6
5.1 5.1 4.7 5.0 4.1 4.1 3.9 3.8 3.5 3.6 3.9 4.1 4.2 4.3 4.0 4.1 3.9 4.0 4.0 4.0 4.2 4.3 4.2 4.3 4.4 4.3 4.2 4.0 4.1 4.3 4.6 4.8 4.7 4.6 4.5 4.6 4.8 4.8 5.0 5.2 5.2 5.4 5.5 5.7
5.5 5.4 4.9 4.8 4.7 4.8 4.6 4.2 4.0 4.1 4.1 4.0 3.8 3.9 4.0 4.1 4.3 4.3 4.2 4.5 4.6 4.5 4.6 4.2 3.8 3.9 4.3 4.5 4.5 4.6 4.5 4.7 4.7 4.7 4.7 4.7 4.9 4.9 5.0 5.1 5.2 5.5 5.6 5.8
5.2 5.2 5.1 4.7 4.6 4.9 4.5 4.5 4.6 4.4 4.3 4.3 4.2 4.4 4.6 4.8 4.6 4.5 4.3 4.3 4.4 4.5 4.6 4.6 4.5 4.6 4.4 4.5 4.5 4.6 4.8 4.9 5.0 5.1 5.1 5.2 5.3 5.4 5.4 5.5 5.7 5.8 6.1 6.1
4.8 4.5 4.4 4.1 4.3 4.5 4.6 4.7 4.7 4.7 4.8 4.9 5.0 5.0 4.8 5.0 5.1 5.1 5.0 5.0 4.9 4.9 4.7 4.7 4.7 4.8 4.7 4.7 4.8 4.8 4.8 5.0 5.1 5.3 5.4 5.4 5.4 5.5 5.7 5.8 6.1 6.1 5.9 5.8
Wind_Speed
3 7 13 15 14 10 5 9 14 8 3 4 14 20 22 18 16 19 17 16 16 17 15 15 18 17 17 16 16 17 15 15 11 8 8 6 6 5 4 5 5 5 5 5
4 13 13 2 4 10 9 11 15 9 4 6 13 20 23 25 21 18 15 12 11 10 12 14 17 17 18 18 18 17 16 16 12 8 7 4 7 4 5 5 5 5 5 5
13 1 4 6 6 9 11 15 11 9 2 8 10 17 14 7 4 5 9 8 6 7 13 15 18 19 18 19 19 18 17 16 13 11 7 6 6 5 4 5 4 4 6 6
9 2 7 6 9 11 13 9 8 5 3 10 2 11 11 11 13 9 5 8 5 4 9 13 17 19 20 18 16 16 16 15 13 13 10 11 7 7 5 6 5 5 6 6
3 7 7 9 8 13 3 2 4 2 6 5 9 7 7 2 7 8 3 3 2 2 7 13 16 17 17 16 15 15 15 14 13 13 11 9 8 5 7 7 9 7 7 5
9 1 4 4 3 6 9 4 2 1 3 9 15 13 7 5 7 6 4 3 2 3 1 8 11 13 13 12 14 14 15 14 13 12 12 11 10 8 7 8 8 6 5 5
4 7 3 3 5 3 7 5 4 5 5 8 3 8 13 6 3 2 4 3 1 2 2 5 9 11 13 14 14 13 14 12 13 12 11 10 9 9 10 10 8 9 7 6
8 9 11 11 13 7 14 8 7 9 7 11 4 9 6 4 1 3 3 3 3 3 3 3 2 8 11 13 14 13 13 12 11 11 10 8 8 6 6 8 7 6 6 6
6 8 3 6 4 5 7 10 3 8 7 8 11 16 11 5 6 6 7 7 7 5 4 4 4 5 9 10 12 12 12 11 10 10 8 7 7 7 6 7 7 6 5 5
3 10 5 5 2 1 5 4 4 5 8 16 15 17 13 6 13 13 12 11 9 6 6 5 6 7 7 7 8 9 10 10 10 9 8 7 7 7 7 7 8 8 7 8
4 7 7 6 9 12 5 6 6 5 9 15 18 14 1 1 4 11 14 12 12 10 7 6 6 7 8 8 8 9 9 9 8 7 8 9 8 8 8 8 8 9 8 8
8 5 13 19 7 3 13 18 20 13 18 12 16 21 3 4 1 4 8 11 10 9 8 8 8 8 8 9 8 8 7 8 8 8 8 8 7 8 9 8 8 8 8 6
6 7 13 17 8 2 8 15 17 18 11 23 17 18 3 3 4 7 10 13 12 12 11 8 8 8 8 8 8 7 8 8 6 6 6 5 4 5 6 5 5 5 5 4
1 13 16 16 17 3 6 10 14 17 12 19 21 25 27 22 14 11 10 13 15 14 13 10 8 8 8 8 8 8 7 6 7 6 6 6 4 4 3 4 4 5 4 3
4 8 16 23 26 20 19 20 18 16 18 15 22 24 28 25 18 14 14 13 14 13 13 10 10 8 8 8 8 7 7 7 7 8 7 7 6 6 6 5 5 4 4 3
11 6 7 12 23 22 23 26 28 30 31 32 31 30 25 18 22 19 1 10 11 11 10 10 11 11 9 8 7 6 7 8 7 8 7 6 7 7 5 5 4 5 4 3
13 6 6 15 18 16 14 13 13 16 19 11 9 12 17 19 21 21 19 16 13 11 11 11 10 9 8 8 6 6 5 6 7 6 6 5 4 4 3 3 2 2 1 1
18 16 11 14 15 17 9 15 16 20 20 18 15 14 9 11 14 18 16 13 13 12 10 8 6 6 6 5 6 5 5 5 5 6 5 3 1 1 1 1 0 2 2 3
6 3 5 4 9 1 9 11 8 7 7 18 17 18 14 14 3 14 16 15 13 12 9 8 7 6 5 5 5 4 4 3 3 3 1 1 3 3 3 3 3 3 4 4
12 6 2 6 6 4 6 21 13 5 3 18 16 16 19 16 5 5 10 10 11 10 8 8 7 4 4 5 5 4 2 1 1 1 2 3 4 5 5 5 5 4 4 6
10 6 5 6 4 4 16 22 12 1 8 17 15 14 14 10 6 7 9 9 9 8 9 8 7 6 4 4 6 6 3 3 2 3 5 4 4 5 6 6 5 5 6 6
5 6 4 4 4 2 20 7 7 7 9 10 12 13 14 12 10 8 8 9 10 9 8 8 7 6 5 5 6 7 6 3 4 6 7 5 6 5 5 7 7 7 7 8
4 5 3 5 3 6 7 7 6 7 9 11 13 13 12 11 12 13 12 11 9 9 9 8 7 8 6 6 6 7 6 6 7 7 8 7 7 7 7 8 8 6 7 6
8 13 3 3 6 11 3 4 7 8 9 11 11 12 11 11 12 11 11 11 10 10 9 8 9 8 9 7 7 7 9 7 7 9 8 8 8 8 7 6 6 6 6 7
5 8 8 3 7 8 7 11 10 11 11 12 13 12 13 12 13 11 12 11 11 11 10 8 9 10 11 10 9 9 8 8 9 9 9 8 7 8 8 7 7 6 8 9
6 4 4 2 8 8 14 11 13 14 14 14 16 17 15 13 14 14 12 11 11 12 11 12 11 12 12 12 12 12 10 9 9 9 8 7 7 7 6 7 8 12 16 19
Wind_Direction
182 218 220 228 223 271 282 268 265 259 174 250 253 267 277 276 260 263 259 254 246 236 220 196 191 183 178 175 174 175 172 170 165 167 160 161 162 153 139 120 114 106 95 85
194 241 246 200 218 228 238 259 262 271 198 222 278 272 278 276 265 261 263 254 241 234 207 190 185 180 180 176 178 178 178 173 176 172 173 165 156 158 138 134 120 110 109 102
230 241 122 185 188 209 229 237 258 267 247 236 285 273 253 263 231 221 235 250 247 228 198 185 181 181 179 182 182 182 179 177 176 173 152 133 126 132 151 154 140 127 127 118
245 183 207 204 230 210 254 229 235 238 261 278 296 287 265 254 264 258 248 227 234 224 199 186 182 184 185 185 183 181 177 177 178 174 175 175 181 170 173 166 152 145 143 129
222 181 191 215 230 190 266 107 180 208 251 302 221 259 271 187 257 213 175 121 47 312 203 194 190 187 188 182 180 179 177 178 178 183 186 184 183 162 156 157 156 156 147 140
260 22 223 236 114 184 138 118 108 147 239 257 250 221 266 232 230 187 150 124 54 25 214 200 188 185 185 176 179 176 176 180 178 185 192 195 190 171 163 165 166 167 163 156
202 220 187 184 176 138 193 182 261 238 206 256 145 210 257 243 210 246 209 200 116 63 110 171 185 185 180 181 178 176 176 176 181 186 191 196 193 182 176 173 177 171 169 170
267 271 187 179 218 197 193 219 219 254 251 281 159 236 250 235 311 229 209 177 166 143 113 106 173 187 185 182 177 174 177 172 177 180 182 183 184 188 187 181 175 181 175 167
221 248 145 198 167 188 164 208 264 263 253 269 253 255 246 192 226 210 201 193 187 162 137 115 114 157 167 172 175 175 172 167 168 168 166 171 176 176 178 168 166 160 155 151
255 276 183 135 151 193 221 139 174 205 257 254 258 263 261 231 230 220 215 209 191 167 150 127 116 123 127 142 152 157 162 162 158 157 157 154 148 147 143 152 152 152 152 154
238 232 236 150 197 207 178 215 227 293 248 258 266 261 307 271 277 222 222 205 189 176 159 140 124 121 123 124 128 131 136 141 142 146 143 143 134 134 140 141 143 148 149 154
218 255 255 247 224 285 268 242 232 236 240 239 259 264 351 280 220 264 223 190 180 164 162 146 133 125 118 112 112 110 110 117 120 118 116 109 116 126 125 129 128 133 128 120
189 232 267 260 223 189 229 230 240 246 276 251 256 261 140 158 232 235 211 183 174 167 164 158 148 134 122 114 111 107 111 115 110 106 110 109 116 120 130 131 124 136 145 156
30 264 247 256 265 292 241 236 231 233 246 257 253 270 272 268 248 222 202 191 182 171 167 159 147 128 114 105 97 94 76 76 97 104 100 101 99 99 113 127 136 137 143 158
314 251 257 261 269 276 269 266 263 250 249 251 261 258 266 286 291 282 210 183 176 172 161 154 137 120 108 102 94 88 80 64 76 91 89 83 77 70 71 78 83 94 118 130
319 279 281 263 258 260 261 268 272 267 269 266 266 265 11 352 15 5 183 172 164 156 142 126 113 104 93 85 83 83 83 77 72 84 82 78 80 74 65 67 75 83 90 92
262 264 271 269 280 278 257 349 348 54 31 336 17 336 351 17 32 24 33 48 53 55 66 69 75 80 83 77 67 63 72 83 86 81 77 78 83 94 92 78 61 57 47 345
269 280 258 267 274 257 97 42 54 84 43 21 4 5 16 36 35 29 25 62 73 70 60 60 71 77 67 71 74 65 45 64 85 81 80 71 60 104 73 49 232 273 281 272
349 343 304 1 324 109 50 26 357 2 43 13 5 357 343 322 121 39 27 30 45 49 44 41 39 52 44 34 37 49 63 76 93 108 134 321 301 273 256 245 243 263 273 268
2 34 9 338 292 306 16 328 314 236 172 4 1 0 359 352 52 25 26 20 36 44 35 26 17 27 26 6 352 359 351 238 213 230 299 308 293 286 282 283 280 279 263 267
343 358 344 316 267 92 340 326 317 17 335 349 350 360 3 21 24 8 12 15 27 23 11 21 359 345 348 334 324 324 306 270 276 293 283 272 264 275 282 280 278 271 265 267
41 340 14 315 338 278 359 358 49 316 328 341 346 354 352 349 352 357 360 0 358 356 351 347 329 320 311 304 313 310 297 290 288 297 290 279 272 278 285 273 265 256 260 258
55 353 358 13 63 332 5 50 11 351 339 343 341 339 339 342 342 339 341 344 334 331 324 324 318 313 301 296 299 293 298 300 296 288 281 280 273 266 258 259 257 255 251 258
14 16 39 262 25 345 85 54 8 352 339 333 331 320 329 320 321 319 320 326 322 319 320 318 308 299 298 298 293 289 290 288 281 279 277 273 270 270 264 255 264 268 265 263
353 322 335 318 9 333 234 358 343 342 333 326 327 322 326 321 319 321 321 320 317 314 314 308 302 302 301 307 298 293 290 292 283 278 276 280 280 273 268 262 265 260 257 253
360 352 345 303 343 305 288 305 331 338 331 329 326 324 325 321 318 319 313 313 312 309 312 309 307 305 304 307 304 301 296 285 280 280 276 268 266 269 273 274 272 265 268 267